Location: Splawn
(30.9202°N, 96.9858°W)
Time: 13:45:15
(UTC+00:00)

Transit 2A Rocket - Pass Details

Date: 05 March 2020
Orbit: 588 x 915 km, 66.7° (Epoch: 08 April)

Event Time Altitude Azimuth Distance (km) Brightness Sun altitude
Rises 09:56:00 0° 354° (N) 3,231 - -37.6°
Exits shadow 09:57:37 - 3° (N) 2,760 8.1 -37.3°
Reaches altitude 10° 09:59:11 10° 14° (NNE) 2,368 7.8 -36.9°
Maximum altitude 10:02:45 17° 55° (NE) 1,963 7.7 -36.2°
Drops below altitude 10° 10:06:28 10° 96° (E) 2,492 8.3 -35.4°
Sets 10:09:54 0° 115° (ESE) 3,474 9.0 -34.7°
